| time (UTC) | temp C | wind direction | speed KPH | gust KPH | rain 1hr cm | rain 24hr cm | rain mn cm | humidity % | barometer mb |
| 20260505041601 | 18 | 110 | 4.8 | 12.9 | 0.00 | 3.38 | 2.54 | 62 | 1017.8 |
| 20260505040057 | 18 | 140 | 4.8 | 19.3 | 0.00 | 3.38 | 2.54 | 64 | 1017.6 |
| 20260505034548 | 19 | 135 | 8.0 | 14.5 | 0.00 | 3.38 | 2.54 | 64 | 1017.7 |
| 20260505033052 | 18 | 129 | 4.8 | 12.9 | 0.00 | 3.38 | 2.54 | 67 | 1017.6 |
| 20260505031555 | 18 | 146 | 3.2 | 9.7 | 0.00 | 3.38 | 2.54 | 67 | 1017.7 |
| 20260505030119 | 18 | 142 | 3.2 | 12.9 | 0.00 | 3.38 | 2.54 | 68 | 1017.9 |
| 20260505024556 | 18 | 116 | 1.6 | 11.3 | 0.00 | 3.38 | 2.54 | 71 | 1018.1 |
| 20260505023052 | 18 | 119 | 6.4 | 12.9 | 0.00 | 3.38 | 2.54 | 73 | 1018.3 |
| 20260505021552 | 18 | 131 | 1.6 | 14.5 | 0.00 | 3.38 | 2.54 | 76 | 1018.5 |
| 20260505020100 | 18 | 120 | 1.6 | 8.0 | 0.00 | 3.38 | 2.54 | 78 | 1018.4 |
| 20260505014610 | 18 | 103 | 4.8 | 11.3 | 0.00 | 3.38 | 2.54 | 78 | 1018.5 |
| 20260505013056 | 18 | 122 | 1.6 | 8.0 | 0.00 | 3.38 | 2.54 | 77 | 1018.7 |
| 20260505011558 | 18 | 133 | 1.6 | 11.3 | 0.00 | 3.38 | 2.54 | 78 | 1018.5 |
| 20260505010103 | 17 | 129 | 3.2 | 9.7 | 0.00 | 3.38 | 2.54 | 79 | 1018.9 |
| 20260505004556 | 17 | 108 | 3.2 | 11.3 | 0.00 | 3.38 | 2.54 | 78 | 1019.1 |
| 20260505003058 | 17 | 111 | 4.8 | 11.3 | 0.00 | 3.38 | 2.54 | 81 | 1018.8 |
| 20260505001557 | 17 | 109 | 6.4 | 14.5 | 0.00 | 3.38 | 2.54 | 80 | 1019.3 |
| 20260505000058 | 16 | 130 | 3.2 | 12.9 | 0.00 | 3.38 | 2.54 | 83 | 1019.1 |
| 20260504234553 | 16 | 115 | 0.0 | 9.7 | 0.00 | 3.38 | 2.54 | 85 | 1018.9 |
| 20260504233054 | 16 | 122 | 3.2 | 11.3 | 0.00 | 3.38 | 2.54 | 86 | 1019.2 |
| 20260504231551 | 15 | 150 | 1.6 | 6.4 | 0.00 | 3.38 | 2.54 | 91 | 1019.1 |
| 20260504230053 | 15 | 140 | 1.6 | 6.4 | 0.00 | 3.38 | 2.54 | 93 | 1018.6 |
| 20260504224553 | 15 | 0 | 0.0 | 3.2 | 0.00 | 3.38 | 2.54 | 93 | 1018.9 |
| 20260504223110 | 15 | 146 | 3.2 | 8.0 | 0.03 | 3.38 | 2.54 | 94 | 1018.5 |
| 20260504221553 | 14 | 0 | 0.0 | 0.0 | 0.03 | 3.38 | 2.54 | 95 | 1018.6 |
| 20260504220053 | 14 | 134 | 0.0 | 6.4 | 0.03 | 3.38 | 2.54 | 95 | 1018.3 |
| 20260504214557 | 14 | 135 | 0.0 | 4.8 | 0.00 | 3.35 | 2.51 | 96 | 1018.5 |
| 20260504213056 | 13 | 0 | 0.0 | 1.6 | 0.00 | 3.33 | 2.49 | 96 | 1018.3 |
| 20260504211639 | 13 | 141 | 0.0 | 3.2 | 0.00 | 3.33 | 2.49 | 96 | 1018.5 |
| 20260504210055 | 13 | 0 | 0.0 | 1.6 | 0.03 | 3.33 | 2.49 | 96 | 1018.4 |
| 20260504204551 | 13 | 0 | 0.0 | 4.8 | 0.03 | 3.33 | 2.49 | 95 | 1018.1 |
| 20260504203108 | 14 | 97 | 1.6 | 11.3 | 0.08 | 3.33 | 2.49 | 95 | 1017.8 |
| 20260504201604 | 15 | 127 | 4.8 | 11.3 | 0.18 | 3.30 | 2.46 | 96 | 1018.0 |
| 20260504200054 | 16 | 118 | 1.6 | 9.7 | 0.36 | 3.28 | 2.44 | 96 | 1017.8 |
| 20260504194555 | 16 | 135 | 1.6 | 6.4 | 0.46 | 3.28 | 2.44 | 96 | 1018.0 |
| 20260504193102 | 16 | 0 | 0.0 | 3.2 | 0.43 | 3.25 | 2.41 | 96 | 1017.8 |
| 20260504191607 | 16 | 141 | 0.0 | 4.8 | 0.28 | 3.10 | 2.24 | 96 | 1018.1 |
| 20260504190106 | 16 | 154 | 0.0 | 0.0 | 0.08 | 2.90 | 2.06 | 96 | 1018.2 |
| 20260504184555 | 16 | 0 | 0.0 | 4.8 | 0.00 | 2.82 | 1.96 | 96 | 1017.6 |
| 20260504183053 | 16 | 92 | 0.0 | 11.3 | 0.00 | 2.82 | 1.96 | 96 | 1017.1 |
| 20260504181600 | 16 | 145 | 3.2 | 11.3 | 0.05 | 2.82 | 1.96 | 96 | 1017.3 |
| 20260504180054 | 17 | 111 | 1.6 | 4.8 | 0.46 | 2.82 | 1.96 | 96 | 1017.4 |
| 20260504174552 | 17 | 0 | 0.0 | 0.0 | 0.74 | 2.79 | 1.96 | 96 | 1017.4 |
| 20260504173056 | 17 | 0 | 0.0 | 6.4 | 0.84 | 2.79 | 1.96 | 96 | 1017.1 |
| 20260504171552 | 17 | 76 | 0.0 | 1.6 | 0.86 | 2.72 | 1.88 | 96 | 1017.1 |
| 20260504081605 | 19 | 128 | 0.0 | 3.2 | 0.00 | 0.03 | 0.03 | 88 | 1016.2 |